Location: Cheyres
(46.8153°N, 6.7877°E)
Time: 13:55:17
(UTC+00:00)

Intercosmos 24 - Pass Details

Date: 11 May 2021
Orbit: 499 x 2378 km, 82.6° (Epoch: 19 June)

Event Time Altitude Azimuth Distance (km) Brightness Sun altitude
Rises 19:35:15 0° 179° (S) 2,784 7.1 -6.5°
Reaches altitude 10° 19:37:31 10° 175° (S) 1,785 6.1 -6.8°
Maximum altitude 19:41:09 58° 96° (E) 589 3.7 -7.3°
Drops below altitude 10° 19:44:43 10° 16° (NNE) 1,749 6.7 -7.8°
Sets 19:46:55 0° 13° (NNE) 2,720 7.7 -8.1°
